This is the latest recevied weather packets stored in our database for station/object IR4UCA-3. If no packets are shown the sender has not sent any weather packets the latest 1 day(s).
| Time | Temp. | Humidity | Pressure | Rain* | Wind** | Luminosity | Snow |
|---|---|---|---|---|---|---|---|
| 1777973253 | 15.56° C | 90% | 1012.6 hPa | 1.02 mm | 0.45 m/s, 39° | - | - |
| 1777973134 | 15.56° C | 90% | 1012.5 hPa | 1.02 mm | 0.45 m/s, 39° | - | - |
| 1777973015 | 15.56° C | 90% | 1012.4 hPa | 1.02 mm | 0.45 m/s, 38° | - | - |
| 1777972898 | 15.56° C | 90% | 1012.4 hPa | 0.76 mm | 0.45 m/s, 34° | - | - |
| 1777972769 | 15.56° C | 90% | 1012.4 hPa | 0.76 mm | 0.45 m/s, 32° | - | - |
| 1777972647 | 15.56° C | 90% | 1012.4 hPa | 0.76 mm | 0.45 m/s, 92° | - | - |
| 1777972537 | 15.56° C | 90% | 1012.3 hPa | 0.76 mm | 0.89 m/s, 71° | - | - |
| 1777972406 | 15.56° C | 90% | 1012.3 hPa | 0.76 mm | 0.89 m/s, 113° | - | - |
| 1777972291 | 15.56° C | 90% | 1012.3 hPa | 0.51 mm | 1.79 m/s, 85° | - | - |
| 1777972167 | 15° C | 90% | 1012.5 hPa | 0.51 mm | 1.79 m/s, 62° | - | - |
| 1777972046 | 15° C | 90% | 1012.6 hPa | 0.51 mm | 2.24 m/s, 63° | - | - |
| 1777971936 | 15° C | 90% | 1012.7 hPa | 0.51 mm | 2.24 m/s, 65° | - | - |
| 1777971804 | 15° C | 90% | 1012.8 hPa | 0.51 mm | 1.34 m/s, 66° | - | - |
| 1777971684 | 15° C | 90% | 1012.9 hPa | 0.51 mm | 0.89 m/s, 69° | - | - |
| 1777971566 | 15° C | 90% | 1012.9 hPa | 0.51 mm | 1.34 m/s, 63° | - | - |
| 1777971443 | 15° C | 90% | 1013 hPa | 0.51 mm | 0.45 m/s, 63° | - | - |
| 1777971330 | 15° C | 90% | 1012.8 hPa | 0.51 mm | 0.89 m/s, 63° | - | - |
| 1777971202 | 15° C | 90% | 1012.8 hPa | 0.51 mm | 1.34 m/s, 63° | - | - |
| 1777971079 | 15° C | 90% | 1012.9 hPa | 0.51 mm | 1.79 m/s, 63° | - | - |
| 1777970960 | 15° C | 90% | 1013 hPa | 0.51 mm | 0.45 m/s, 16° | - | - |
| 1777970837 | 15° C | 90% | 1013.1 hPa | 0.51 mm | 0.45 m/s, 16° | - | - |
| 1777970727 | 15° C | 90% | 1013.1 hPa | 0.25 mm | 0.89 m/s, 16° | - | - |
| 1777970591 | 15° C | 90% | 1013.1 hPa | 0.25 mm | 0.89 m/s, 16° | - | - |
| 1777970476 | 15° C | 90% | 1013.2 hPa | 0.25 mm | 0.89 m/s, 16° | - | - |
| 1777970351 | 15° C | 90% | 1013.3 hPa | 0.25 mm | 0.89 m/s, 16° | - | - |
* Rain latest hour (hover to see other rain measurements)
** Current wind speed in m/s (hover to see current wind gust speed)